KE4LOJ Weather Reports


Display with metric or nautical units.
time (UTC)temp
F
wind
direction
speed
MPH
gust
MPH
rain 1hr
in
rain 24hr
in
rain mn
in
humidity
%
barometer
mb
20260505164834 80 99 1.0 3.0 0.00 0.00 0.00 52 1017.2
20260505164331 81 128 1.0 4.0 0.00 0.00 0.00 52 1017.2
20260505163829 80 86 3.0 4.0 0.00 0.00 0.00 53 1017.4
20260505163328 80 127 2.0 3.0 0.00 0.00 0.00 53 1017.3
20260505162826 80 95 2.0 4.0 0.00 0.00 0.00 55 1017.3
20260505162321 79 91 2.0 3.0 0.00 0.00 0.00 55 1017.2
20260505161819 80 82 4.0 4.0 0.00 0.00 0.00 55 1017.3
20260505161316 80 122 0.0 2.0 0.00 0.00 0.00 56 1017.3
20260505160813 80 98 0.0 3.0 0.00 0.00 0.00 56 1017.3
20260505160311 81 132 3.0 7.0 0.00 0.00 0.00 54 1017.1
20260505153250 79 111 1.0 4.0 0.00 0.00 0.00 56 1017.3
20260505152747 81 151 2.0 6.0 0.00 0.00 0.00 54 1017.4
20260505152243 81 113 2.0 4.0 0.00 0.00 0.00 53 1017.2
20260505151737 81 115 2.0 6.0 0.00 0.00 0.00 55 1017.3
20260505151235 80 136 1.0 4.0 0.00 0.00 0.00 56 1017.3
20260505150733 82 129 1.0 6.0 0.00 0.00 0.00 56 1017.3
20260505150230 80 130 2.0 6.0 0.00 0.00 0.00 60 1017.3
20260505140200 77 177 4.0 7.0 0.00 0.00 0.00 69 1017.1
20260505130124 74 164 2.0 3.0 0.00 0.00 0.00 76 1017.1
20260505124613 73 127 5.0 7.0 0.00 0.00 0.00 77 1016.9
20260505124109 73 127 3.0 7.0 0.00 0.00 0.00 78 1016.9
20260505123605 72 153 1.0 6.0 0.00 0.00 0.00 79 1017.1
20260505123102 71 156 1.0 2.0 0.00 0.00 0.00 81 1017.1
20260505122559 71 115 0.0 3.0 0.00 0.00 0.00 82 1017.1
20260505122056 70 121 0.0 1.0 0.00 0.00 0.00 82 1016.9
20260505121552 70 161 0.0 0.0 0.00 0.00 0.00 82 1016.8
20260505121049 70 133 1.0 2.0 0.00 0.00 0.00 84 1017.0
20260505120546 69 123 0.0 2.0 0.00 0.00 0.00 85 1016.8
20260505120041 69 154 2.0 3.0 0.00 0.00 0.00 83 1016.8
20260505115536 69 119 0.0 1.0 0.00 0.00 0.00 84 1016.8
20260505115034 68 118 0.0 0.0 0.00 0.00 0.00 87 1016.8
20260505114531 67 118 0.0 0.0 0.00 0.00 0.00 89 1016.8
20260505114027 66 117 0.0 0.0 0.00 0.00 0.00 91 1016.8
20260505113524 65 108 0.0 0.0 0.00 0.00 0.00 91 1016.6
20260505113020 65 108 0.0 0.0 0.00 0.00 0.00 92 1016.5
20260505112517 64 108 0.0 0.0 0.00 0.00 0.00 92 1016.4
20260505112015 64 107 0.0 0.0 0.00 0.00 0.00 93 1016.3
20260505111514 64 106 0.0 0.0 0.00 0.00 0.00 93 1016.2
20260505111010 63 130 0.0 0.0 0.00 0.00 0.00 93 1016.1
20260505110507 63 130 0.0 0.0 0.00 0.00 0.00 94 1015.9
20260505101939 62 130 0.0 0.0 0.00 0.00 0.00 94 1015.9
20260505101438 62 130 0.0 0.0 0.00 0.00 0.00 94 1015.7
20260505100934 62 130 0.0 0.0 0.00 0.00 0.00 94 1015.9
20260505100431 62 130 0.0 0.0 0.00 0.00 0.00 94 1015.9
20260505095927 62 130 0.0 0.0 0.00 0.00 0.00 94 1015.8
20260505095424 62 130 0.0 0.0 0.00 0.00 0.00 94 1015.8
20260505094920 62 130 0.0 0.0 0.00 0.00 0.00 94 1015.7
20260505094417 62 130 0.0 0.0 0.00 0.00 0.00 94 1015.6
20260505093913 62 130 0.0 0.0 0.00 0.00 0.00 95 1015.8
20260505093410 62 131 0.0 0.0 0.00 0.00 0.00 95 1015.7
20260505092908 62 131 0.0 0.0 0.00 0.00 0.00 95 1015.5
20260505092406 62 131 0.0 0.0 0.00 0.00 0.00 95 1015.5
20260505091902 62 131 0.0 0.0 0.00 0.00 0.00 95 1015.6
20260505091400 62 132 0.0 0.0 0.00 0.00 0.00 95 1015.3
20260505090858 61 132 0.0 0.0 0.00 0.00 0.00 95 1015.5
20260505090356 62 132 0.0 0.0 0.00 0.00 0.00 94 1015.5
20260505085853 62 132 0.0 0.0 0.00 0.00 0.00 94 1015.4
20260505085351 62 132 0.0 0.0 0.00 0.00 0.00 94 1015.6
20260505084849 62 132 0.0 0.0 0.00 0.00 0.00 94 1015.6
20260505084347 62 132 0.0 0.0 0.00 0.00 0.00 94 1015.3
20260505083844 62 132 0.0 0.0 0.00 0.00 0.00 94 1015.3
20260505083342 62 132 0.0 0.0 0.00 0.00 0.00 94 1015.5
20260505082838 62 132 0.0 0.0 0.00 0.00 0.00 94 1015.1
20260505082334 62 132 0.0 0.0 0.00 0.00 0.00 93 1015.4
20260505081831 62 132 0.0 0.0 0.00 0.00 0.00 93 1015.2
20260505081327 62 132 0.0 0.0 0.00 0.00 0.00 93 1015.3
20260505080824 62 132 0.0 0.0 0.00 0.00 0.00 93 1015.5
20260505080320 62 132 0.0 0.0 0.00 0.00 0.00 93 1015.3
20260505075815 62 132 0.0 0.0 0.00 0.00 0.00 93 1015.4
20260505075313 62 132 0.0 0.0 0.00 0.00 0.00 93 1015.3
20260505074810 62 132 0.0 0.0 0.00 0.00 0.00 93 1015.4
20260505074307 62 132 0.0 0.0 0.00 0.00 0.00 92 1015.5
20260505073804 62 132 0.0 0.0 0.00 0.00 0.00 92 1015.5
20260505073302 62 133 0.0 0.0 0.00 0.00 0.00 92 1015.7
20260505072759 62 132 0.0 0.0 0.00 0.00 0.00 92 1015.6
20260505072255 62 132 0.0 0.0 0.00 0.00 0.00 92 1015.4
20260505071751 62 133 0.0 0.0 0.00 0.00 0.00 92 1015.6
20260505071247 62 133 0.0 0.0 0.00 0.00 0.00 91 1015.4
20260505070745 62 133 0.0 0.0 0.00 0.00 0.00 91 1015.6
20260505070241 63 133 0.0 0.0 0.00 0.00 0.00 91 1015.6
20260505065737 63 133 0.0 0.0 0.00 0.00 0.00 91 1015.9
20260505065234 63 132 0.0 0.0 0.00 0.00 0.00 90 1015.8
20260505064731 63 132 0.0 0.0 0.00 0.00 0.00 90 1015.9
20260505064229 63 132 0.0 0.0 0.00 0.00 0.00 90 1015.8
20260505063726 63 132 0.0 0.0 0.00 0.00 0.00 89 1016.0
20260505063222 63 132 0.0 0.0 0.00 0.00 0.00 89 1016.1
20260505062719 63 132 0.0 0.0 0.00 0.00 0.00 89 1015.9
20260505062217 63 133 0.0 0.0 0.00 0.00 0.00 89 1015.8
20260505061713 63 132 0.0 0.0 0.00 0.00 0.00 89 1016.0
20260505061211 63 132 0.0 0.0 0.00 0.00 0.00 89 1015.9
20260505060708 63 132 0.0 0.0 0.00 0.00 0.00 89 1016.0
20260505060205 63 132 0.0 0.0 0.00 0.00 0.00 88 1016.1
20260505055700 64 132 0.0 0.0 0.00 0.00 0.00 88 1016.0
20260505055157 64 132 0.0 0.0 0.00 0.00 0.00 87 1016.2
20260505054654 64 132 0.0 0.0 0.00 0.00 0.00 87 1016.1
20260505054152 64 132 0.0 0.0 0.00 0.00 0.00 87 1016.3
20260505053650 64 133 0.0 0.0 0.00 0.00 0.00 87 1016.5
20260505053146 64 132 0.0 0.0 0.00 0.00 0.00 86 1016.5
20260505052643 65 132 0.0 0.0 0.00 0.00 0.00 86 1016.4
20260505052140 65 132 0.0 0.0 0.00 0.00 0.00 85 1016.5
20260505051637 65 132 0.0 0.0 0.00 0.00 0.00 85 1016.6
20260505051136 65 132 0.0 0.0 0.00 0.00 0.00 84 1016.8
20260505050633 66 132 0.0 0.0 0.00 0.00 0.00 83 1016.8
20260505050131 66 132 0.0 0.0 0.00 0.00 0.00 83 1016.8
20260505041601 67 149 2.0 2.0 0.00 0.00 0.00 80 1016.9
20260505041058 67 127 0.0 3.0 0.00 0.00 0.00 80 1017.0
20260505040555 67 121 0.0 2.0 0.00 0.00 0.00 80 1016.8
20260505040052 67 127 1.0 2.0 0.00 0.00 0.00 79 1016.8
20260505035549 67 167 3.0 3.0 0.00 0.00 0.00 79 1016.9
20260505035045 67 120 2.0 3.0 0.00 0.00 0.00 79 1017.1
20260505034542 68 151 2.0 2.0 0.00 0.00 0.00 79 1017.1
20260505034039 67 132 0.0 2.0 0.00 0.00 0.00 80 1017.2
20260505033536 67 136 0.0 2.0 0.00 0.00 0.00 79 1017.3
20260505033034 68 121 0.0 0.0 0.00 0.00 0.00 79 1017.1
20260505032531 68 132 0.0 0.0 0.00 0.00 0.00 79 1017.4
20260505032028 68 128 0.0 0.0 0.00 0.00 0.00 79 1017.4
20260505031525 68 120 0.0 0.0 0.00 0.00 0.00 78 1017.5
20260505031021 68 126 0.0 0.0 0.00 0.00 0.00 78 1017.4
20260505030518 68 141 1.0 1.0 0.00 0.00 0.00 78 1017.4
20260505030014 68 114 0.0 0.0 0.00 0.00 0.00 78 1017.4
20260505025510 68 118 0.0 0.0 0.00 0.00 0.00 78 1017.3
20260505025010 68 124 0.0 0.0 0.00 0.00 0.00 78 1017.4
20260505024506 68 150 1.0 2.0 0.00 0.00 0.00 77 1017.6
20260505024003 68 130 0.0 2.0 0.00 0.00 0.00 77 1017.4
20260505023500 68 127 0.0 0.0 0.00 0.00 0.00 77 1017.4
20260505022957 68 128 0.0 0.0 0.00 0.00 0.00 76 1017.5
20260505022455 69 132 0.0 0.0 0.00 0.00 0.00 76 1017.5
20260505021952 69 123 0.0 1.0 0.00 0.00 0.00 76 1017.6
20260505021448 69 167 1.0 2.0 0.00 0.00 0.00 75 1017.4
20260505020944 69 135 0.0 0.0 0.00 0.00 0.00 75 1017.4
20260505020439 69 148 2.0 2.0 0.00 0.00 0.00 75 1017.4
20260505015937 69 131 0.0 1.0 0.00 0.00 0.00 75 1017.1
20260505015434 69 125 0.0 1.0 0.00 0.00 0.00 74 1017.1
20260505014931 69 124 0.0 1.0 0.00 0.00 0.00 74 1016.9
20260505014428 69 136 0.0 2.0 0.00 0.00 0.00 74 1017.0
20260505013925 69 149 0.0 1.0 0.00 0.00 0.00 74 1017.0
20260505013421 69 133 0.0 0.0 0.00 0.00 0.00 73 1017.0
20260505012920 69 122 1.0 3.0 0.00 0.00 0.00 73 1016.9
20260505012417 70 125 0.0 2.0 0.00 0.00 0.00 73 1016.8
20260505011913 69 127 0.0 1.0 0.00 0.00 0.00 73 1016.7
20260505011410 70 131 0.0 0.0 0.00 0.00 0.00 72 1016.7
20260505010906 70 131 0.0 0.0 0.00 0.00 0.00 72 1016.8
20260505010402 70 128 0.0 0.0 0.00 0.00 0.00 71 1016.8
20260505005858 70 136 0.0 0.0 0.00 0.00 0.00 71 1016.8
20260505005355 70 123 0.0 0.0 0.00 0.00 0.00 70 1016.9
20260505004853 71 115 0.0 0.0 0.00 0.00 0.00 70 1016.6
20260505004349 71 109 0.0 0.0 0.00 0.00 0.00 69 1016.6
20260505003847 71 129 0.0 0.0 0.00 0.00 0.00 69 1016.5
20260505003344 71 116 0.0 0.0 0.00 0.00 0.00 68 1016.3
20260505002839 71 115 2.0 3.0 0.00 0.00 0.00 68 1016.4
20260505002337 71 125 1.0 2.0 0.00 0.00 0.00 68 1016.4
20260505001835 72 149 1.0 2.0 0.00 0.00 0.00 67 1016.2
20260505001332 72 131 0.0 1.0 0.00 0.00 0.00 67 1016.1
20260505000829 72 124 0.0 2.0 0.00 0.00 0.00 67 1016.2
20260505000327 72 123 0.0 3.0 0.00 0.00 0.00 66 1016.3
20260504235823 73 119 1.0 1.0 0.00 0.00 0.00 66 1016.2
20260504235320 73 112 1.0 2.0 0.00 0.00 0.00 65 1016.1
20260504234817 73 95 3.0 4.0 0.00 0.00 0.00 65 1016.0
20260504234315 73 85 3.0 10.0 0.00 0.00 0.00 64 1015.9
20260504233811 73 152 4.0 7.0 0.00 0.00 0.00 64 1016.0
20260504233306 74 138 6.0 8.0 0.00 0.00 0.00 63 1016.0
20260504232803 74 136 2.0 6.0 0.00 0.00 0.00 63 1016.0
20260504232301 74 171 2.0 8.0 0.00 0.00 0.00 62 1016.0
20260504231757 74 137 2.0 6.0 0.00 0.00 0.00 62 1015.9
20260504231254 74 196 2.0 4.0 0.00 0.00 0.00 62 1015.9
20260504230750 74 149 4.0 4.0 0.00 0.00 0.00 61 1015.8
20260504230248 75 115 3.0 8.0 0.00 0.00 0.00 62 1015.6
20260504225747 75 132 2.0 7.0 0.00 0.00 0.00 61 1015.8
20260504225243 75 177 3.0 7.0 0.00 0.00 0.00 60 1015.7
20260504224740 75 136 7.0 10.0 0.00 0.00 0.00 60 1016.0
20260504224237 75 139 1.0 4.0 0.00 0.00 0.00 60 1016.0
20260504223733 75 125 4.0 7.0 0.00 0.00 0.00 59 1015.8
20260504223229 75 160 2.0 9.0 0.00 0.00 0.00 60 1015.8
20260504222726 76 158 6.0 11.0 0.00 0.00 0.00 59 1015.9
20260504222223 77 192 8.0 13.0 0.00 0.00 0.00 57 1015.7
20260504221720 76 118 0.0 6.0 0.00 0.00 0.00 58 1015.9
20260504221217 76 162 1.0 6.0 0.00 0.00 0.00 58 1015.9
20260504220714 76 175 7.0 11.0 0.00 0.00 0.00 58 1015.8
20260504220212 76 96 3.0 13.0 0.00 0.00 0.00 57 1015.7
20260504215708 77 150 3.0 3.0 0.00 0.00 0.00 56 1015.9
20260504215205 77 197 4.0 6.0 0.00 0.00 0.00 57 1015.9
20260504214700 76 120 6.0 11.0 0.00 0.00 0.00 57 1016.0
20260504214157 76 191 4.0 13.0 0.00 0.00 0.00 57 1015.9
20260504213654 77 120 5.0 7.0 0.00 0.00 0.00 56 1015.8
20260504213151 78 160 6.0 14.0 0.00 0.00 0.00 55 1015.8
20260504212647 77 137 4.0 8.0 0.00 0.00 0.00 55 1015.6
20260504212144 77 182 8.0 9.0 0.00 0.00 0.00 55 1015.7
20260504211642 77 94 2.0 4.0 0.00 0.00 0.00 56 1015.8
20260504211137 77 136 3.0 6.0 0.00 0.00 0.00 56 1016.0
20260504210636 77 124 2.0 8.0 0.00 0.00 0.00 55 1015.8
20260504210132 77 128 3.0 9.0 0.00 0.00 0.00 56 1015.8
20260504205629 77 161 4.0 11.0 0.00 0.00 0.00 54 1016.0
20260504205126 77 158 6.0 7.0 0.00 0.00 0.00 55 1016.0
20260504204625 77 168 6.0 10.0 0.00 0.00 0.00 55 1016.0
20260504204124 78 140 3.0 6.0 0.00 0.00 0.00 54 1015.7
20260504203622 78 163 2.0 8.0 0.00 0.00 0.00 54 1015.8
20260504203120 77 167 2.0 10.0 0.00 0.00 0.00 55 1015.9
20260504202620 77 97 5.0 8.0 0.00 0.00 0.00 54 1016.2
20260504202117 78 152 8.0 10.0 0.00 0.00 0.00 53 1015.9
20260504201614 80 123 3.0 9.0 0.00 0.00 0.00 52 1016.1
20260504201111 79 133 0.0 4.0 0.00 0.00 0.00 52 1016.0
20260504200608 78 156 9.0 13.0 0.00 0.00 0.00 53 1016.3
20260504200104 78 173 4.0 6.0 0.00 0.00 0.00 53 1016.2
20260504195601 78 178 2.0 10.0 0.00 0.00 0.00 53 1016.3
20260504195057 77 115 2.0 8.0 0.00 0.00 0.00 54 1016.3
20260504194554 78 91 4.0 10.0 0.00 0.00 0.00 54 1016.4
20260504194049 78 168 5.0 8.0 0.00 0.00 0.00 53 1016.6
20260504193546 79 176 9.0 11.0 0.00 0.00 0.00 52 1016.5
20260504193045 78 85 1.0 10.0 0.00 0.00 0.00 53 1016.3
20260504192543 78 117 2.0 11.0 0.00 0.00 0.00 53 1016.5
20260504192041 78 87 3.0 8.0 0.00 0.00 0.00 54 1016.5
20260504191538 78 133 3.0 7.0 0.00 0.00 0.00 53 1016.6
20260504191034 78 103 2.0 3.0 0.00 0.00 0.00 52 1016.7
20260504190531 77 78 1.0 8.0 0.00 0.00 0.00 55 1016.8
20260504190026 78 145 4.0 7.0 0.00 0.00 0.00 54 1016.9
20260504185524 78 133 1.0 13.0 0.00 0.00 0.00 54 1017.0
20260504185020 78 78 4.0 7.0 0.00 0.00 0.00 53 1016.9
20260504184516 78 122 2.0 3.0 0.00 0.00 0.00 53 1016.8
20260504184012 78 152 3.0 7.0 0.00 0.00 0.00 51 1017.0
20260504183509 78 174 6.0 7.0 0.00 0.00 0.00 52 1017.1
20260504183007 79 108 0.0 7.0 0.00 0.00 0.00 51 1017.2
20260504182503 78 169 6.0 10.0 0.00 0.00 0.00 54 1017.4
20260504182001 79 111 2.0 7.0 0.00 0.00 0.00 53 1017.3
20260504181457 78 125 4.0 8.0 0.00 0.00 0.00 52 1017.4
20260504180956 78 106 4.0 7.0 0.00 0.00 0.00 52 1017.4
20260504180455 79 98 2.0 16.0 0.00 0.00 0.00 52 1017.4
20260504175953 79 103 1.0 9.0 0.00 0.00 0.00 52 1017.5
20260504175449 78 117 2.0 9.0 0.00 0.00 0.00 52 1017.3
20260504174947 78 159 5.0 10.0 0.00 0.00 0.00 52 1017.4
20260504174444 79 115 5.0 7.0 0.00 0.00 0.00 54 1017.4
20260504173942 79 73 1.0 4.0 0.00 0.00 0.00 53 1017.4
20260504173438 78 112 3.0 7.0 0.00 0.00 0.00 53 1017.5
20260504172936 79 121 5.0 11.0 0.00 0.00 0.00 52 1017.5
20260504172431 79 105 2.0 7.0 0.00 0.00 0.00 53 1017.6
20260504171928 79 157 5.0 8.0 0.00 0.00 0.00 50 1017.5
20260504171425 78 99 1.0 3.0 0.00 0.00 0.00 53 1017.5
20260504170922 78 97 0.0 4.0 0.00 0.00 0.00 53 1017.8
20260504170418 79 87 2.0 3.0 0.00 0.00 0.00 52 1017.7